Theta_e
323 324 324 323 322 322 323 324 323 324 326 327 328 329 329 327 323 322 324 325 321 314 312 313 312 312 313 315 315 315 315 314 314 314 314 318 321 324 326 327 327 328 328 328 327 325 324 325 324 324 323 323 322 320 318 319 318 317 318 317 317 317 316 315 315 315 316 316 316 316 316 316 316 317 317 317 317 317 316 314 313 312 309 307 305
322 324 324 322 321 321 322 324 324 323 325 326 327 327 328 327 322 321 323 326 324 319 315 314 315 315 316 317 315 313 312 311 311 312 314 318 320 323 326 326 325 326 327 327 325 323 323 322 322 322 322 321 320 319 319 318 318 317 317 316 315 316 315 314 314 314 315 315 315 315 316 316 316 316 316 315 315 315 314 314 313 310 306 303 302
322 324 325 322 321 321 319 321 324 324 324 325 326 326 327 327 324 321 320 323 325 322 318 317 317 318 318 317 315 313 311 308 308 310 313 318 320 323 324 324 324 325 325 325 323 322 321 320 320 321 321 320 319 318 318 317 317 315 314 315 315 315 315 315 314 314 314 315 315 315 315 315 314 313 313 313 312 311 310 309 307 305 302 301 302
322 324 325 323 322 321 318 318 322 324 323 323 324 325 325 326 326 323 320 322 323 321 319 318 319 319 319 319 318 315 310 308 309 311 315 319 322 323 323 322 323 323 324 324 322 320 320 319 320 321 320 320 320 318 317 316 317 315 313 314 314 314 314 314 314 314 315 314 315 314 312 311 310 306 306 306 304 303 302 302 302 301 302 302 303
322 323 325 325 323 322 320 318 321 323 322 322 323 323 323 324 324 324 322 322 322 320 319 319 319 319 319 320 320 315 311 311 313 314 318 321 322 322 322 321 321 322 323 322 321 319 318 319 321 321 320 319 319 318 317 316 316 315 313 313 314 314 314 313 312 312 311 310 311 309 306 305 302 299 299 299 298 299 300 301 302 302 303 304 304
321 323 324 324 322 321 320 319 321 323 322 322 321 319 321 322 321 321 322 322 321 320 320 317 316 319 320 318 316 314 314 316 316 317 320 321 322 321 321 321 320 321 321 321 320 318 316 318 320 320 320 319 318 317 315 315 316 315 314 314 313 311 309 307 305 304 303 303 304 303 303 301 300 299 298 297 298 300 302 303 304 305 306 306 306
320 321 323 323 321 319 318 318 320 322 322 321 319 318 320 320 318 318 320 321 321 319 320 317 315 319 319 313 311 311 314 317 318 318 320 320 320 320 320 320 320 320 320 320 320 317 316 317 319 320 319 318 318 317 314 314 314 313 311 309 306 302 299 298 298 300 301 302 303 303 303 302 301 300 299 299 302 304 305 306 307 308 308 308 308
321 320 321 321 320 320 317 317 319 322 323 321 319 319 319 319 318 319 318 319 322 319 319 319 318 319 318 314 310 308 311 316 317 317 318 319 318 319 319 319 320 320 319 320 318 317 316 316 318 319 318 317 317 317 315 312 310 307 304 302 299 298 298 299 300 302 304 305 306 306 305 304 303 303 303 305 307 308 308 309 309 309 309 309 309
322 321 321 320 319 319 317 315 318 322 322 320 318 320 319 319 320 321 317 316 320 320 319 320 319 319 319 317 312 307 309 313 315 316 317 318 318 318 319 319 320 320 319 319 317 316 316 315 317 317 316 317 316 315 313 310 309 307 303 301 301 301 301 301 302 304 305 307 307 308 307 306 305 306 307 308 309 309 310 310 310 310 310 310 310
322 322 322 321 318 318 318 314 316 321 322 319 319 320 319 320 320 320 318 315 317 320 320 320 319 319 319 318 314 310 311 313 314 315 316 318 318 318 318 319 319 319 318 318 317 316 315 314 316 315 313 314 314 312 312 311 311 309 306 305 303 302 302 302 303 304 305 307 308 308 309 308 308 308 308 308 308 308 309 309 310 310 311 311 311
323 322 322 322 318 317 318 315 314 319 322 319 320 320 319 321 319 317 318 318 316 317 317 318 319 318 318 317 313 312 315 315 314 315 316 317 318 318 318 318 318 318 318 317 316 316 314 314 316 314 312 313 313 313 313 314 313 311 307 306 304 303 303 302 302 303 305 307 308 308 308 309 309 309 309 309 308 308 309 309 310 311 311 312 312
323 322 321 322 320 318 319 317 312 316 321 320 319 320 319 319 319 317 318 319 316 312 313 316 318 318 318 316 312 313 316 316 315 316 318 317 317 318 317 317 317 317 318 317 316 315 314 315 316 315 314 315 315 314 314 314 314 312 308 306 306 305 305 305 304 304 305 307 307 308 308 309 309 310 310 310 310 310 310 311 311 311 311 312 313
324 323 322 322 321 319 319 319 314 313 320 321 319 319 318 317 318 319 316 315 314 310 312 318 318 318 319 316 313 314 315 316 316 315 317 318 317 317 317 317 317 317 317 316 314 313 314 315 316 315 315 315 316 316 316 315 315 314 313 311 309 308 307 307 307 307 307 307 307 307 308 308 309 309 310 310 311 311 312 313 313 314 313 312 313
324 323 323 322 322 321 319 320 317 313 317 322 319 317 317 316 317 319 315 311 312 311 312 316 315 315 318 317 316 317 317 317 316 315 317 319 317 316 316 316 317 318 317 315 314 312 313 314 315 315 315 315 316 315 316 316 316 317 317 317 315 313 312 310 309 309 308 308 308 308 308 308 309 310 310 311 311 312 313 314 314 314 314 314 314
323 323 323 322 322 321 319 320 320 317 318 321 319 316 316 315 315 317 315 312 312 311 310 313 311 311 316 318 318 318 318 318 318 317 318 319 317 316 316 316 317 318 317 315 314 313 313 314 314 314 315 315 315 315 315 316 317 317 317 318 318 317 316 315 313 312 311 310 309 308 308 308 308 308 310 311 311 312 314 315 315 315 314 315 316
321 322 323 322 322 322 320 319 320 319 319 320 318 316 316 316 314 315 316 315 313 311 311 311 310 311 314 316 317 317 317 317 319 318 319 320 318 316 315 315 315 317 317 316 315 314 314 314 314 315 315 316 316 316 316 316 316 317 317 318 318 318 318 317 317 316 315 314 312 312 311 311 310 310 312 313 314 314 315 316 316 316 315 316 316
319 320 322 323 322 322 320 319 319 319 320 320 318 316 315 316 316 315 316 315 312 311 314 312 310 312 315 314 315 317 315 316 318 317 318 320 318 316 315 314 314 315 316 316 315 315 315 314 314 314 315 315 316 317 316 316 316 317 317 318 317 318 318 317 317 317 317 317 316 316 316 315 314 314 314 315 315 316 317 317 316 316 316 315 315
319 319 321 322 322 321 320 319 318 318 319 320 319 317 316 317 317 316 317 314 310 312 315 315 313 315 316 313 313 315 315 316 317 316 316 318 318 316 315 314 314 314 315 315 314 315 315 315 315 315 314 315 315 315 316 316 316 317 317 317 317 317 317 317 317 317 317 317 316 316 316 315 314 314 314 314 314 315 316 316 315 315 314 314 314
320 320 321 321 321 321 320 320 319 318 318 319 319 317 316 316 316 317 316 313 310 312 314 316 316 314 313 311 310 313 314 315 317 316 314 315 316 316 315 314 315 315 314 314 313 313 314 315 315 315 314 315 314 314 314 315 316 316 316 316 317 317 317 316 316 316 316 316 316 315 315 313 311 310 311 311 311 312 313 313 314 313 313 312 311
318 319 321 320 319 320 320 320 318 318 318 318 318 318 316 315 316 317 315 311 310 311 312 314 314 311 311 311 310 311 312 314 316 317 315 314 314 316 315 314 315 315 314 314 313 312 312 313 313 313 313 314 314 313 313 314 314 315 315 315 315 316 316 316 316 316 315 315 315 315 314 313 310 306 305 307 308 308 309 310 312 312 312 310 309
315 315 318 320 319 319 320 320 319 319 318 317 316 317 317 316 316 317 314 311 311 311 312 313 312 311 310 310 311 310 311 312 314 316 316 315 314 314 315 315 315 315 314 314 313 313 313 313 312 312 312 312 313 313 312 313 313 314 314 314 314 313 314 315 314 313 313 313 313 312 312 312 310 305 302 303 305 305 304 305 308 309 309 306 305
315 314 316 319 319 318 319 319 319 319 318 317 315 316 317 317 316 316 314 312 312 312 314 315 312 311 310 310 311 310 310 310 312 314 315 316 315 314 315 315 315 315 315 315 315 314 314 314 313 313 312 312 312 312 311 311 312 313 313 313 313 312 312 313 313 312 310 309 308 306 304 304 303 302 300 300 302 302 302 302 303 304 304 302 302
315 314 315 318 319 318 318 319 318 318 318 317 317 315 315 316 316 315 314 313 313 312 314 315 313 311 311 310 310 310 309 309 309 311 314 315 314 314 314 314 314 315 315 314 315 315 314 314 314 313 313 312 312 312 311 311 310 310 310 311 310 309 309 309 310 312 309 304 302 301 300 299 299 299 299 299 301 302 303 302 302 302 302 302 302
315 315 315 317 319 319 318 319 318 317 318 318 318 314 311 314 316 315 313 314 314 312 312 313 313 312 312 311 310 310 310 309 307 308 311 313 313 313 314 314 313 313 314 314 313 314 314 315 314 313 313 313 312 312 312 311 311 309 308 307 307 307 306 304 303 305 304 300 299 299 299 299 299 300 300 301 304 306 305 304 303 303 303 303 303
317 315 314 316 319 319 318 318 318 318 318 319 318 316 313 312 314 315 315 314 315 314 312 312 312 313 313 312 312 311 310 310 308 307 308 310 312 313 313 313 313 313 313 313 313 313 314 314 314 313 313 313 313 312 312 312 311 310 308 307 306 304 302 300 299 300 300 300 300 301 301 300 301 301 301 302 306 308 306 305 304 304 305 305 305
317 317 314 314 317 319 317 317 317 318 318 318 318 317 315 313 312 314 315 314 315 315 313 312 312 312 313 313 313 311 310 310 309 308 308 308 310 312 312 312 312 313 313 312 313 313 313 313 312 312 312 312 313 313 312 310 309 308 307 305 303 301 299 299 300 300 301 301 302 302 301 301 301 301 301 303 306 306 306 306 306 307 307 306 306
314 316 315 313 315 318 318 317 317 318 319 319 319 318 318 317 315 314 314 315 315 315 314 313 313 313 314 314 313 312 312 311 310 309 307 306 307 309 311 312 310 310 311 312 312 312 312 312 311 311 311 312 312 311 309 305 303 302 301 300 299 299 300 300 301 301 301 302 302 302 302 301 302 302 302 303 305 305 307 308 307 307 306 305 304
311 315 315 313 314 316 318 318 317 318 319 319 319 319 318 318 318 317 316 316 316 316 315 314 314 315 315 314 314 314 314 313 312 310 307 305 306 307 308 310 310 308 308 309 310 311 311 312 312 311 311 311 311 307 302 299 298 298 298 299 300 300 301 301 301 301 302 302 302 301 301 301 301 301 302 303 305 306 307 307 306 304 303 302 301
310 313 316 315 314 315 315 316 317 318 319 319 319 319 318 318 319 319 318 317 316 316 315 315 315 315 315 315 315 315 314 314 312 312 309 305 303 305 305 305 307 308 308 307 309 310 311 311 312 312 311 310 306 301 297 296 297 298 299 300 301 301 301 301 302 302 303 303 302 302 301 301 302 303 304 305 306 306 305 304 302 301 300 298 297
308 310 315 317 316 315 314 314 316 318 318 319 318 318 318 318 319 319 319 317 316 316 316 316 314 313 313 314 315 314 314 314 312 312 311 305 302 303 304 304 304 306 307 308 308 309 311 312 311 311 310 306 301 297 296 298 298 299 300 300 301 302 303 303 304 304 305 304 304 303 303 303 304 305 305 305 305 304 302 300 299 298 297 296 296
307 308 312 316 316 316 316 313 314 317 318 319 318 318 318 318 318 319 318 316 316 316 316 315 312 311 311 312 312 313 313 313 312 312 311 307 303 303 304 304 304 304 304 307 308 307 309 311 311 310 306 301 297 297 298 298 299 300 301 302 303 304 304 305 305 305 305 305 304 304 304 305 305 305 305 303 302 300 298 297 296 296 296 296 296
306 307 309 315 316 316 316 315 314 316 318 318 318 317 318 318 318 319 318 316 316 316 316 315 312 311 312 311 311 311 312 312 312 312 311 309 306 304 305 304 303 303 304 305 307 307 308 309 309 307 302 297 296 298 298 299 300 301 303 304 304 304 304 304 304 305 305 305 305 305 305 304 304 303 302 299 297 296 296 295 296 296 296 296 296
304 305 307 312 316 316 316 316 316 316 317 318 317 316 317 317 318 319 318 317 317 317 316 316 315 314 314 313 311 311 311 311 311 311 311 310 307 306 306 306 303 302 303 304 306 307 306 306 305 302 298 297 297 298 298 299 301 303 304 304 303 303 303 303 304 304 304 304 304 303 303 303 301 299 298 296 295 295 295 295 295 295 295 295 295
303 304 305 309 314 316 315 316 317 317 317 318 317 316 317 317 318 319 319 318 317 317 317 317 316 315 315 313 311 310 310 310 309 310 310 310 308 307 307 307 305 302 302 303 304 305 304 302 301 299 297 297 298 298 299 300 303 304 304 303 302 302 302 302 303 303 303 302 302 301 300 299 298 296 295 295 295 295 295 295 295 295 294 294 294
302 304 304 306 311 316 316 315 317 317 316 317 317 316 317 317 318 319 319 319 318 317 317 316 316 314 314 314 312 310 310 309 308 308 308 308 308 307 306 306 305 302 301 302 302 303 302 301 300 299 298 298 299 299 301 302 303 304 303 302 302 301 301 302 302 302 301 300 299 298 297 296 295 294 294 295 295 295 295 294 294 294 294 294 294
300 303 304 304 307 314 316 315 316 317 316 316 316 317 317 317 317 318 318 318 318 318 317 317 315 313 312 313 312 312 311 310 309 308 307 307 308 306 306 307 306 303 301 301 301 301 301 301 300 300 299 299 300 302 303 303 302 302 302 302 301 301 301 301 301 300 299 297 296 295 295 294 294 294 294 294 294 294 294 294 293 293 293 293 293
298 301 304 303 304 311 316 316 316 317 316 316 316 316 316 317 318 318 317 317 318 318 317 317 316 313 311 310 310 311 311 310 309 307 306 307 308 307 307 307 307 303 301 300 300 300 300 300 300 300 300 300 302 303 303 303 302 300 300 301 301 301 300 300 299 298 297 296 295 294 294 294 294 294 294 294 293 293 293 293 293 293 293 293 293
298 299 302 303 303 308 315 316 316 317 317 316 315 315 316 316 318 318 317 317 318 317 317 317 317 313 309 307 306 307 308 308 306 304 303 304 307 307 307 308 307 304 301 300 299 299 299 299 301 302 301 302 303 303 302 301 301 301 301 300 300 300 299 298 297 296 295 294 294 294 294 294 294 293 293 293 293 293 293 293 293 293 293 293 293
298 298 301 303 303 306 313 316 315 317 317 316 315 315 316 316 317 318 318 317 317 317 317 317 317 313 309 307 307 307 307 305 303 301 301 302 305 307 308 308 308 304 301 299 299 298 298 299 302 303 303 303 303 302 301 300 300 300 301 300 300 298 297 296 295 295 294 294 293 293 293 293 293 293 292 292 292 292 292 292 292 292 292 293 293
297 298 300 303 303 304 311 315 316 317 317 316 316 315 315 316 316 316 317 317 317 317 317 318 316 313 310 310 311 311 311 308 304 302 301 301 303 305 307 308 307 304 300 299 299 298 298 300 301 303 303 303 302 302 301 299 299 299 300 301 301 299 296 294 294 294 294 294 293 293 293 292 292 292 292 292 292 292 292 292 292 292 292 292 292
296 298 299 302 303 303 309 315 316 316 317 317 317 316 315 316 317 316 316 316 316 316 317 317 317 314 312 312 312 312 312 308 305 304 302 301 302 303 304 306 305 302 300 300 299 298 299 300 301 302 302 303 302 302 300 300 301 301 301 301 300 298 295 293 293 293 293 293 293 292 292 292 292 291 291 291 292 292 292 292 292 292 292 292 292
295 297 299 301 302 303 308 314 316 315 317 317 317 317 316 316 317 316 315 315 316 316 316 316 317 315 314 313 312 312 311 308 305 302 300 299 300 301 302 303 303 302 301 300 300 300 300 300 301 301 302 303 303 304 304 304 303 302 301 300 298 296 294 293 293 293 293 293 292 292 291 291 291 291 291 291 291 291 291 292 292 292 291 291 291
294 296 298 300 302 303 307 314 316 316 317 317 317 317 316 317 317 316 315 315 316 316 314 315 317 316 314 314 313 312 311 309 307 303 300 298 299 300 300 301 301 302 302 302 301 300 300 300 301 301 302 304 306 306 306 305 303 302 302 301 298 295 293 293 294 293 293 292 292 291 291 291 291 291 291 291 291 291 291 291 291 291 291 290 290
293 295 297 299 301 302 307 313 316 316 317 317 316 316 315 316 317 317 316 316 316 316 314 314 316 315 315 315 314 313 312 309 308 306 302 298 297 298 299 299 300 302 303 304 303 302 301 301 301 301 302 305 308 308 307 305 303 303 302 300 297 295 294 294 294 294 294 292 291 291 291 291 291 291 291 291 291 291 291 291 290 290 290 290 290
292 295 297 299 301 302 306 313 315 316 317 317 316 315 314 314 315 315 316 316 316 316 315 314 314 314 314 315 315 315 314 311 310 309 306 300 297 297 298 298 299 300 302 303 304 304 304 304 303 304 305 307 310 311 310 308 305 303 302 299 297 295 294 294 294 294 294 293 291 291 291 291 291 291 291 291 291 291 290 290 290 290 290 290 289
292 295 296 299 301 303 306 312 315 316 316 316 315 315 314 314 314 314 315 316 315 315 315 315 315 315 315 315 315 316 315 314 313 312 309 304 299 297 297 297 297 298 300 301 302 302 302 303 306 308 309 309 310 313 313 310 305 303 303 301 299 297 294 294 294 294 293 293 292 291 291 291 291 290 290 290 290 290 290 290 290 290 289 289 289
293 295 296 299 301 303 306 312 315 314 314 314 314 314 314 314 315 315 315 316 315 315 315 314 315 316 316 316 316 316 316 316 316 315 313 309 305 300 297 296 296 297 298 299 299 299 299 299 303 308 310 310 310 312 313 310 306 304 304 304 301 298 294 294 293 293 292 292 292 292 291 291 291 290 290 290 290 290 290 290 290 290 289 289 289
294 295 297 299 302 303 306 312 314 313 313 313 313 312 311 312 314 314 315 316 315 315 315 315 315 316 316 316 316 316 316 316 316 316 315 314 311 305 300 297 296 296 296 297 297 298 297 297 301 306 309 308 308 310 311 309 305 303 303 301 298 295 294 293 293 293 292 292 292 292 291 291 291 290 290 290 290 290 290 290 290 290 289 289 289
294 295 298 300 302 303 306 311 314 314 313 313 313 312 310 310 311 312 313 315 315 315 315 315 315 315 315 316 316 316 316 316 316 316 316 316 314 310 307 303 300 297 296 296 296 296 296 297 301 307 308 306 306 308 310 308 303 302 302 300 297 295 294 293 293 293 293 292 292 291 291 291 291 290 290 290 290 290 290 290 290 290 289 289 289
294 296 298 300 302 304 306 310 313 314 313 313 312 311 310 310 311 313 313 314 315 314 314 314 314 314 314 315 315 315 315 316 317 316 316 316 315 312 312 310 306 301 297 296 296 296 296 298 302 305 305 304 305 307 309 307 303 301 302 301 299 297 294 293 294 293 292 292 291 291 291 291 291 290 290 289 289 289 290 289 289 289 289 289 289
294 296 299 300 302 304 306 310 312 313 313 313 312 311 311 311 312 313 313 314 314 314 314 314 314 314 314 314 314 314 313 314 316 316 316 316 315 314 314 313 310 304 299 296 295 296 298 300 303 304 303 303 305 306 307 305 302 301 301 301 300 298 295 294 294 293 292 291 291 291 291 291 291 290 290 289 289 289 289 289 289 289 289 289 289
Wind_Speed
35 34 31 27 25 24 24 25 27 28 27 25 23 24 26 27 27 26 29 32 27 24 26 26 25 25 26 25 23 20 17 15 16 17 20 23 22 22 20 19 18 18 20 21 20 21 21 21 21 20 21 22 22 22 22 22 22 22 21 21 20 19 19 19 18 18 18 17 17 17 17 17 17 16 16 16 15 16 15 15 14 14 15 15 14
36 35 33 29 27 27 26 25 29 32 29 28 25 23 27 30 29 28 30 32 29 25 25 26 26 26 25 23 22 21 20 18 18 18 20 23 22 21 21 20 19 17 18 20 18 19 20 21 21 21 21 22 22 22 23 23 22 22 22 20 20 20 19 19 18 18 18 18 17 17 17 17 16 16 15 15 15 14 14 14 14 14 15 15 14
38 37 35 32 30 28 27 26 28 32 31 29 28 25 27 31 30 27 29 30 29 26 26 28 29 27 24 22 21 21 21 21 21 21 22 23 22 23 22 19 19 18 17 17 17 18 20 20 21 22 21 22 22 22 23 23 22 22 23 21 20 20 19 18 19 18 18 18 17 17 16 16 15 15 15 14 14 14 14 13 13 13 14 15 15
40 39 38 36 33 31 30 28 29 33 34 31 30 28 26 29 29 27 28 29 29 28 29 30 30 27 24 22 22 22 24 26 25 24 25 25 23 23 21 19 18 19 17 17 17 18 20 21 23 23 23 23 23 22 22 22 22 21 22 22 20 19 18 18 18 18 18 18 17 17 17 16 15 15 15 14 14 14 14 14 14 14 15 15 16
41 41 40 37 36 34 33 31 31 35 37 33 31 29 27 27 28 28 29 31 32 32 33 32 30 28 26 24 22 22 26 29 29 28 29 29 26 22 21 20 21 20 19 18 19 20 22 23 25 24 23 23 24 24 23 22 21 21 21 21 20 19 18 18 18 18 19 18 18 18 17 17 16 16 16 16 15 15 15 16 16 17 18 18 18
43 44 41 38 37 37 36 34 34 36 37 35 32 29 29 30 29 30 30 33 35 35 35 32 30 30 28 25 22 22 25 29 29 29 31 32 29 25 22 22 23 22 21 21 22 23 23 25 26 23 23 23 23 24 23 23 21 21 21 20 20 20 20 20 19 20 20 20 19 19 19 18 17 17 17 17 18 18 19 19 20 21 21 20 19
43 45 43 40 39 39 38 37 37 39 38 36 35 32 32 33 33 33 32 34 36 33 33 33 31 31 29 26 24 22 24 28 28 28 29 31 30 28 25 24 24 24 23 23 24 23 23 26 26 23 23 24 23 22 21 21 22 22 22 22 23 23 22 22 22 22 22 22 21 21 20 19 19 19 19 20 21 22 22 23 23 23 22 22 21
44 45 45 42 41 40 39 40 41 42 41 39 36 35 35 36 37 38 35 36 36 32 32 33 32 32 29 26 25 23 24 26 27 27 27 28 29 28 27 26 26 27 26 25 24 23 22 24 25 23 23 24 24 23 22 23 24 24 25 26 25 25 24 23 23 23 23 23 23 22 21 21 21 22 22 23 23 24 24 24 24 23 23 22 21
45 46 46 46 43 40 40 42 42 44 45 40 35 37 38 40 41 41 38 38 36 33 33 34 34 33 29 25 24 24 24 25 27 27 26 26 27 29 30 29 29 29 28 26 25 24 22 22 24 23 22 23 24 24 25 25 25 25 26 27 26 25 25 25 24 24 24 23 23 22 22 22 22 23 24 24 24 23 23 22 22 22 22 21 21
48 48 48 47 45 40 40 42 42 44 46 39 35 38 38 38 41 41 39 39 38 36 35 36 36 33 29 25 24 25 25 25 26 27 27 26 26 30 32 32 30 29 28 27 26 26 24 23 23 20 21 24 24 25 26 25 24 24 25 26 26 25 25 24 24 23 23 22 22 21 21 21 21 21 22 21 21 21 20 20 20 19 19 19 18
50 50 49 47 45 41 40 42 41 43 45 40 37 39 37 37 40 42 40 39 40 39 37 36 36 32 29 27 26 27 27 26 26 28 29 29 29 31 33 32 30 29 28 28 28 27 26 26 24 21 22 24 23 24 24 23 23 23 24 25 24 24 23 23 22 21 21 20 20 20 20 20 19 19 18 18 18 17 16 16 16 15 15 15 15
52 51 50 48 45 43 42 42 42 42 44 44 43 43 41 39 41 44 44 42 40 40 38 37 37 34 31 30 29 29 28 27 28 28 28 32 34 32 32 31 30 30 30 29 28 27 27 28 27 26 25 26 24 24 25 24 23 22 22 22 21 21 21 21 21 20 20 19 19 18 18 18 18 17 15 15 15 15 14 13 12 12 11 11 12
53 52 51 48 45 45 44 42 44 45 47 49 48 46 44 41 42 46 48 46 44 44 41 40 39 37 34 33 31 31 30 27 28 27 27 34 37 33 31 30 30 31 31 29 28 28 29 30 30 29 28 28 28 27 26 25 23 21 19 17 17 17 18 18 18 18 18 18 17 17 17 16 16 15 14 13 13 12 12 11 10 9 9 8 8
52 53 51 48 46 46 45 43 44 46 48 51 49 45 45 45 45 47 48 47 47 49 47 44 43 41 39 37 32 31 30 28 28 26 27 35 37 33 32 30 29 31 31 31 31 31 31 31 31 30 30 30 30 28 28 26 24 23 20 18 16 15 15 15 15 15 16 16 16 15 15 15 15 14 13 12 11 10 10 9 8 8 8 6 5
48 51 50 49 48 48 46 43 44 45 48 51 49 46 47 50 50 49 49 48 48 50 51 48 47 45 41 38 35 33 29 28 29 26 29 37 37 33 32 31 30 31 33 32 32 33 32 31 30 29 29 29 29 28 28 27 25 24 23 22 19 17 15 15 14 14 13 13 13 13 13 14 14 14 13 11 10 9 8 8 7 6 5 4 2
47 48 50 52 51 49 48 46 44 45 48 50 50 49 51 53 52 52 53 53 51 51 52 51 51 51 46 40 36 32 28 30 31 27 31 38 38 33 32 31 32 33 34 33 32 32 32 31 30 29 28 27 27 26 26 26 24 24 23 23 21 21 18 16 16 15 13 12 12 12 11 11 12 11 11 10 9 8 7 6 5 4 3 3 2
47 46 48 53 53 50 48 48 44 44 48 52 51 50 52 55 54 54 56 57 55 53 51 51 53 54 51 44 36 29 28 32 32 28 33 40 38 35 33 32 33 34 34 33 32 30 29 29 29 28 27 26 26 25 24 25 24 23 22 21 20 20 20 18 16 16 15 13 12 13 12 11 11 11 11 10 9 8 8 7 6 5 4 4 4
49 48 47 49 52 51 48 47 45 45 49 52 52 49 51 55 56 56 57 56 55 54 53 51 49 48 48 46 40 34 36 38 32 28 34 39 40 38 36 35 35 34 34 33 31 30 29 28 28 28 27 26 26 24 24 24 24 23 21 20 20 19 19 17 15 15 14 13 13 13 13 13 12 11 10 8 8 8 8 8 7 6 5 4 3
48 49 48 48 51 52 50 48 48 49 51 50 49 50 52 56 55 55 56 55 54 55 55 51 47 44 43 44 41 36 40 43 39 34 34 35 38 40 38 37 37 36 35 33 32 31 30 29 27 27 27 26 26 26 25 24 24 24 22 21 20 20 20 19 18 17 15 13 13 13 13 12 11 10 9 9 9 9 8 8 7 6 5 5 5
45 47 47 46 49 53 51 50 50 52 54 53 50 51 55 56 54 53 54 55 54 55 56 53 49 46 44 44 40 35 37 41 40 38 36 34 36 39 39 39 39 38 37 34 33 32 31 30 28 27 26 26 27 26 25 25 24 24 24 23 21 21 21 21 22 21 19 17 15 14 13 12 11 11 12 12 12 11 10 9 8 8 7 8 8
42 45 47 45 47 52 54 53 53 54 55 55 53 53 55 56 55 54 55 56 54 53 54 54 51 49 47 44 41 38 37 38 39 39 37 35 34 37 39 39 39 38 37 36 34 33 32 31 29 27 26 26 26 26 26 26 26 25 26 25 23 22 21 22 22 21 21 20 19 18 16 15 14 13 14 14 13 13 13 13 12 11 10 10 10
40 42 47 49 47 49 53 55 55 56 55 54 54 55 54 53 55 57 58 58 56 54 53 53 51 49 48 46 44 43 40 38 40 40 38 36 34 37 39 39 40 39 38 38 37 36 34 32 31 29 28 27 26 27 27 27 28 27 27 27 25 24 23 23 24 23 22 22 22 22 20 19 18 17 16 16 16 15 15 14 14 13 12 12 11
43 42 46 51 51 50 50 53 55 56 56 54 55 57 54 52 55 58 58 57 57 55 54 53 51 49 48 49 48 47 45 42 43 43 41 39 37 38 39 38 38 39 39 38 37 37 36 33 32 31 30 29 28 28 28 29 29 29 29 28 27 26 25 25 26 27 25 24 23 22 21 20 19 18 17 16 15 14 14 13 13 13 12 12 12
45 45 46 49 52 52 50 52 55 55 55 54 55 55 53 52 55 58 59 58 57 56 56 56 55 53 52 53 52 49 47 46 46 47 46 45 43 42 43 40 37 37 37 36 36 36 36 35 33 33 32 31 30 30 29 29 30 30 29 29 28 26 26 26 27 27 26 24 23 22 21 20 19 18 17 16 14 13 12 13 13 13 13 13 12
48 48 48 49 51 51 50 52 54 55 55 54 55 55 53 53 56 58 59 60 59 59 60 59 57 56 55 55 54 50 48 48 48 49 49 47 45 44 45 44 41 40 38 36 37 36 36 37 37 36 35 32 31 30 30 30 30 30 29 29 28 26 26 26 26 25 24 23 22 21 20 20 20 19 18 17 14 13 13 13 14 14 14 13 11
46 51 49 48 51 52 51 52 54 56 55 54 56 57 54 54 57 58 57 58 60 61 61 59 58 58 57 55 54 52 49 47 46 47 49 49 47 46 46 43 42 43 41 39 39 39 39 41 40 37 34 32 31 30 30 30 29 29 29 28 27 26 25 25 24 23 22 22 20 20 20 20 20 19 19 18 15 14 14 14 14 14 13 12 11
39 49 50 47 50 52 51 53 53 54 55 54 55 58 57 56 57 58 57 57 58 60 59 58 57 57 57 56 54 52 50 48 46 45 46 48 50 50 49 46 40 38 40 41 40 40 41 41 39 36 34 33 31 30 30 29 29 29 29 28 27 26 25 24 24 23 22 21 21 20 20 20 20 20 20 19 17 17 16 14 14 13 12 11 10
35 43 53 50 50 53 52 53 55 54 55 55 55 57 58 58 59 58 58 58 58 57 56 55 56 55 56 56 54 53 53 52 50 48 43 43 47 49 49 48 44 39 36 38 40 41 42 41 39 37 35 33 31 30 30 29 29 28 27 27 27 26 25 24 24 23 23 22 22 21 21 21 21 20 20 19 19 18 16 14 13 12 11 10 10
36 38 51 54 52 56 55 53 56 57 56 56 56 56 57 59 62 60 59 59 58 56 54 53 54 54 54 55 53 53 54 54 53 52 46 40 42 46 47 47 47 44 40 39 41 44 46 43 40 38 36 34 32 31 30 29 28 28 27 27 27 26 25 24 24 24 24 24 23 23 23 22 22 21 21 20 19 18 15 14 12 11 11 11 10
38 35 45 57 56 58 58 54 57 59 57 57 57 56 57 60 63 61 58 58 57 55 55 54 52 52 53 54 54 54 56 55 53 51 48 41 36 40 44 43 43 43 44 45 43 42 46 45 42 39 36 35 33 31 30 29 28 28 27 26 26 25 24 24 24 24 24 24 24 24 24 24 23 23 22 21 19 17 15 14 13 12 12 12 11
39 33 38 55 59 59 60 57 57 60 59 58 58 57 58 61 62 60 59 60 60 58 57 55 52 51 52 53 55 56 55 54 52 50 49 44 38 35 36 38 38 38 41 44 43 40 42 43 42 39 35 34 33 32 30 29 28 28 26 25 25 24 23 24 24 24 25 25 25 25 25 24 24 23 22 20 18 17 15 14 14 13 13 13 13
38 31 33 50 61 60 61 60 59 61 61 60 60 59 59 62 62 60 61 63 61 58 58 56 53 53 52 51 53 55 53 53 52 50 48 47 45 40 35 32 34 36 37 39 41 40 39 39 39 38 35 33 33 33 31 30 29 27 26 25 24 24 24 24 25 25 25 25 25 25 25 24 23 22 21 19 17 16 16 15 15 15 14 14 13
37 31 29 43 60 60 59 61 60 61 64 62 60 60 60 62 62 61 63 65 62 59 58 57 56 54 52 51 51 52 53 52 51 50 49 49 47 45 41 34 31 34 35 36 39 41 39 38 38 36 34 33 33 33 32 31 29 28 27 26 25 25 26 26 26 26 25 25 25 25 24 24 23 21 20 18 18 17 16 16 16 16 15 15 14
37 33 28 36 55 62 57 60 62 61 64 63 61 61 61 62 64 63 63 63 62 62 60 57 56 55 52 51 52 52 53 52 50 50 50 49 48 46 44 40 34 34 35 36 39 41 40 40 39 36 35 34 33 33 33 31 30 29 28 28 27 27 27 26 27 27 26 26 25 24 24 23 22 21 20 19 18 18 17 17 17 16 15 15 14
36 37 30 29 45 62 59 58 62 61 62 64 61 61 61 61 64 64 61 60 59 61 62 59 56 56 55 54 53 53 54 53 51 50 48 48 48 45 44 42 37 34 35 37 39 41 41 40 38 37 37 37 34 33 33 32 31 30 29 29 28 27 27 27 27 26 26 25 24 24 23 22 22 21 20 19 19 19 18 18 17 17 16 16 16
33 37 35 27 34 56 63 59 62 62 60 63 62 60 62 63 63 62 60 60 60 60 62 60 57 58 58 57 56 55 55 53 51 49 47 47 47 45 44 43 38 34 36 39 40 40 41 39 38 38 38 38 36 34 34 33 32 31 30 30 29 29 28 27 26 26 25 25 24 24 23 23 22 21 20 20 20 19 19 19 19 18 18 18 17
31 34 38 32 29 46 64 61 63 65 61 61 62 61 63 64 63 63 61 62 63 61 62 61 59 60 60 59 58 57 56 55 52 50 48 48 48 46 45 45 41 36 37 41 42 41 40 39 37 37 38 38 37 36 35 35 35 34 32 31 31 31 30 29 28 27 26 26 25 25 24 23 22 21 21 21 21 21 21 21 20 20 20 20 19
30 32 38 37 30 39 62 65 62 66 63 61 62 61 63 64 63 63 61 63 65 64 63 62 59 60 62 61 59 59 58 56 54 52 51 50 51 49 47 47 44 39 39 42 44 43 41 38 36 36 38 39 38 37 38 38 38 38 37 35 34 32 31 31 30 29 28 27 27 26 25 25 24 23 23 23 23 23 23 23 22 22 21 21 20
30 30 34 39 32 35 57 67 63 65 64 61 61 61 63 64 65 64 63 64 67 66 65 64 61 60 62 61 59 59 58 57 56 54 54 55 55 54 51 49 47 43 41 43 44 44 42 39 36 35 37 38 39 39 39 40 39 39 39 39 37 35 34 33 33 33 32 30 29 28 27 25 24 24 25 25 25 25 25 24 24 23 23 21 20
31 29 30 36 34 33 50 67 65 64 65 62 62 62 63 65 65 66 65 65 66 67 66 64 62 61 61 60 59 58 57 56 56 56 56 57 58 57 54 52 50 46 44 45 46 45 44 42 39 37 36 38 40 41 41 43 42 41 40 40 40 39 37 36 35 34 33 33 31 29 28 27 27 27 27 28 27 26 26 26 25 24 23 22 20
33 29 28 31 34 34 45 63 65 63 64 62 62 62 62 65 66 66 67 67 67 67 66 64 63 62 62 62 61 60 57 55 55 56 57 59 60 61 59 56 54 50 47 46 47 47 47 45 42 39 39 40 43 44 45 45 45 44 43 41 40 39 38 38 37 36 35 34 32 31 30 30 30 30 30 29 28 28 27 26 25 24 23 21 20
34 30 28 29 33 34 43 60 64 63 65 62 60 60 60 63 65 65 68 69 69 67 65 64 64 63 63 63 62 62 60 57 56 56 57 59 61 62 62 60 58 56 52 49 48 49 49 48 45 43 43 43 44 44 44 43 44 45 46 46 43 41 39 38 38 37 36 34 33 33 33 32 32 33 32 31 30 29 28 27 26 24 23 21 20
35 31 30 28 31 34 42 59 64 62 65 61 58 58 57 59 62 62 64 66 67 66 63 62 64 65 64 63 62 62 61 59 58 56 56 58 60 61 61 61 61 60 57 54 52 51 50 50 49 47 45 44 43 43 43 44 46 48 48 47 46 44 43 43 42 41 39 37 36 35 35 34 34 34 33 33 32 31 29 28 25 24 22 21 19
35 32 31 30 30 33 43 60 65 63 64 60 55 56 55 56 57 57 59 60 62 64 63 61 63 65 66 65 63 63 62 59 57 56 56 57 58 59 60 60 60 60 59 59 56 55 54 52 51 49 47 45 44 45 46 46 47 48 48 48 47 47 46 46 45 44 42 41 38 37 37 36 35 35 35 34 33 31 29 27 25 23 22 20 18
36 33 33 31 29 32 43 60 66 63 63 59 54 53 54 56 56 54 56 58 59 61 62 63 63 63 64 65 64 63 63 60 58 56 56 56 57 58 58 58 58 58 58 58 57 56 56 54 53 52 49 48 47 47 46 46 46 49 50 50 49 49 48 47 46 44 42 41 41 39 38 37 37 37 36 35 33 31 29 27 25 23 22 20 18
36 34 34 32 28 32 43 60 64 59 59 58 54 52 52 54 55 53 53 55 56 57 58 62 64 63 63 63 61 61 62 61 59 58 57 57 56 57 57 57 57 57 58 58 57 55 53 53 52 51 51 51 50 48 46 47 48 50 51 52 52 52 50 48 47 45 42 40 42 41 40 39 39 38 37 36 34 31 29 27 26 24 22 20 19
36 35 35 32 28 30 42 58 60 54 54 53 50 49 48 49 52 53 52 52 54 54 55 60 64 65 64 62 59 58 58 59 59 58 57 57 56 55 57 57 56 55 56 57 57 56 54 53 52 50 50 51 49 47 47 49 50 50 50 51 53 53 51 48 47 45 41 40 41 42 41 41 40 39 38 36 34 31 30 28 26 24 23 21 21
36 35 34 29 27 29 39 54 56 51 51 51 48 47 44 44 48 52 52 51 52 53 53 56 60 64 66 63 59 58 58 59 59 58 57 56 55 55 56 56 56 55 55 55 54 55 54 52 51 50 50 50 49 48 48 49 50 50 50 51 52 52 51 49 47 45 42 42 44 44 43 42 40 39 38 36 34 32 31 29 27 25 24 23 23
35 34 31 26 26 29 38 51 53 51 52 50 48 47 44 44 46 48 50 51 52 54 54 54 57 61 65 66 64 61 60 60 58 57 57 57 56 57 56 55 56 56 55 54 53 52 52 50 49 49 49 48 48 48 47 47 48 50 52 54 54 53 53 52 50 49 47 48 47 45 43 42 40 40 39 36 35 34 32 30 29 27 26 25 24
34 31 27 24 26 29 39 49 52 53 53 50 48 46 44 43 43 45 48 51 54 55 55 55 56 56 58 62 66 66 63 61 58 57 59 59 57 57 56 55 56 56 56 55 53 52 51 50 50 50 50 49 48 48 47 46 46 48 51 53 53 54 55 55 54 52 50 49 47 45 45 44 41 41 40 37 35 34 33 32 31 30 28 27 26
31 28 23 23 26 29 37 46 48 50 52 50 48 46 44 42 41 42 45 50 54 56 57 56 56 55 54 57 64 67 64 61 59 58 59 59 57 56 55 55 57 57 56 55 53 52 52 53 53 52 51 50 49 49 47 46 46 47 48 50 52 54 56 56 55 52 49 49 49 48 47 46 44 44 42 40 37 36 36 36 34 32 30 29 27
Wind_Direction
222 223 224 225 225 222 221 226 226 220 211 206 203 193 189 183 171 167 171 176 177 168 166 172 178 179 176 173 176 183 183 179 183 188 193 196 194 187 182 185 177 163 159 162 165 167 167 157 150 153 152 152 154 152 150 144 141 143 139 138 137 135 138 138 135 134 132 131 130 130 130 128 128 127 125 124 120 117 117 117 115 112 111 108 100
223 223 223 222 224 223 220 226 228 223 217 210 204 198 195 186 171 168 171 175 178 174 169 174 179 180 178 174 175 181 181 179 184 189 192 195 195 186 180 179 174 169 162 155 156 161 162 157 154 158 158 158 158 151 147 145 141 141 140 141 141 137 137 138 136 135 134 133 132 132 131 130 130 128 126 125 121 119 118 115 113 110 109 108 104
224 223 223 221 223 226 223 224 228 222 215 209 203 199 196 187 177 173 173 173 176 176 173 175 177 176 176 174 176 180 180 181 183 189 191 191 192 186 178 174 173 174 167 155 153 156 157 155 154 157 158 155 153 150 148 146 143 146 146 142 141 139 136 137 137 136 135 133 134 133 131 129 128 127 125 124 122 119 119 118 116 112 112 113 111
226 225 224 223 224 228 226 224 228 220 210 209 204 196 194 191 186 180 176 175 174 172 172 174 173 171 173 173 178 183 182 181 178 183 188 186 186 183 175 172 169 167 164 160 157 155 153 150 150 154 156 154 150 148 148 147 146 148 147 143 143 141 138 138 136 135 135 134 133 132 132 131 130 131 129 128 128 127 127 126 122 119 117 116 113
227 227 226 228 227 227 227 225 225 216 206 207 205 199 197 193 188 182 179 177 172 169 170 172 171 170 174 175 178 180 178 177 177 182 185 182 184 182 175 172 168 164 165 163 160 159 159 155 154 153 153 154 154 152 149 147 148 146 144 143 143 141 138 137 136 136 136 135 134 134 136 136 136 138 137 136 135 134 132 129 125 123 119 115 113
229 229 228 230 230 227 226 224 223 216 207 204 203 203 198 191 186 181 180 177 172 171 172 173 172 173 174 174 176 178 177 179 180 185 184 179 185 187 180 174 170 171 171 166 162 160 160 161 159 155 154 155 156 158 156 150 149 147 146 146 144 142 139 138 137 137 137 136 136 136 137 138 140 141 141 141 139 135 131 129 125 121 118 114 111
231 230 229 230 231 229 225 222 223 219 209 203 202 204 197 190 185 178 177 178 175 176 176 175 175 174 172 173 179 181 182 184 185 188 184 180 186 190 186 179 174 177 175 167 162 158 157 161 162 157 157 160 156 157 158 153 153 151 148 146 143 140 139 138 138 137 136 137 136 137 137 138 139 138 138 138 135 133 129 127 124 119 116 112 109
231 231 230 230 231 230 225 221 223 221 212 203 204 206 199 194 189 180 177 179 179 179 177 177 176 173 170 172 181 184 186 190 193 195 188 184 189 190 188 183 176 175 173 166 159 157 158 162 166 162 158 160 157 157 158 155 151 147 143 141 140 139 138 137 137 137 136 136 136 135 136 136 135 133 133 133 131 130 128 126 123 119 115 110 107
231 229 228 228 230 230 226 222 222 222 215 205 206 207 199 198 194 184 180 180 180 179 177 179 177 173 173 174 180 185 189 193 195 199 196 190 190 190 188 184 179 175 173 168 159 157 159 162 167 167 163 161 158 159 157 150 145 143 141 140 140 139 138 138 137 137 137 136 136 135 135 134 133 132 131 131 131 130 129 127 124 120 115 111 109
230 229 226 228 229 229 228 223 222 224 216 205 205 204 197 200 194 182 182 181 177 176 176 180 177 174 176 176 180 185 189 192 194 198 199 196 194 189 184 181 179 177 174 169 161 157 156 159 163 163 162 160 154 153 150 145 143 142 142 141 141 140 140 140 139 139 138 137 137 135 134 133 132 132 132 133 132 131 130 128 126 123 119 115 111
229 229 228 228 227 227 228 224 222 225 219 206 201 202 201 200 190 180 183 182 179 177 174 178 178 177 178 177 182 188 189 191 192 194 198 200 196 187 182 181 180 179 175 168 163 161 157 158 160 153 149 151 148 148 148 147 146 144 143 142 141 141 141 141 141 141 140 138 138 137 136 135 133 132 132 134 133 133 131 128 127 124 122 118 111
228 229 229 228 225 224 225 224 223 222 221 212 200 204 206 198 189 183 182 180 181 180 176 177 179 179 179 179 183 189 191 193 193 196 199 197 193 186 182 183 184 182 179 172 166 167 164 161 162 155 150 151 150 149 148 147 147 144 142 142 142 143 142 143 144 144 144 143 141 140 140 139 138 137 134 135 136 135 133 129 127 125 126 126 117
228 228 230 228 224 224 223 224 223 219 223 219 202 201 205 196 191 187 183 182 183 182 179 177 177 178 179 179 184 189 192 195 197 199 197 188 186 185 182 183 185 185 184 179 172 168 168 167 167 164 160 159 158 158 155 152 150 146 144 144 145 147 147 146 148 148 149 149 149 147 145 145 147 146 144 143 142 140 139 135 130 129 130 131 120
227 225 227 227 224 223 223 223 222 219 223 221 205 198 198 193 192 190 186 187 188 186 182 179 178 181 180 177 180 188 191 198 200 201 195 185 183 182 181 183 185 185 185 181 174 169 168 170 172 171 169 168 166 165 164 163 160 157 157 159 158 158 157 155 155 157 158 157 157 156 155 157 158 159 158 154 152 152 152 150 146 142 137 130 116
230 224 225 228 225 220 221 222 223 220 220 216 205 198 194 190 192 192 187 186 189 188 185 185 184 182 180 177 179 181 185 197 201 200 196 186 182 180 179 182 182 182 184 181 177 174 171 172 174 175 174 174 173 171 170 169 167 166 166 167 168 171 171 170 168 166 167 166 164 165 167 169 171 171 170 167 169 169 165 166 165 158 149 136 123
241 233 228 228 228 224 221 221 223 223 220 212 202 197 193 190 192 192 187 184 185 185 187 192 191 185 180 176 178 179 180 190 192 192 193 184 178 179 179 182 182 181 182 181 179 178 177 176 177 178 179 180 180 177 177 177 175 174 173 171 173 175 175 178 182 181 182 180 177 178 180 181 183 184 186 191 193 191 189 191 189 188 188 177 175
247 242 231 226 229 230 227 223 222 225 222 215 205 197 194 192 191 190 188 186 184 183 186 193 195 191 185 175 173 181 184 186 181 180 187 182 177 179 181 183 185 185 184 182 181 181 182 183 183 184 185 188 190 188 185 184 184 182 181 181 181 180 178 178 183 189 192 192 193 195 197 199 201 200 203 208 208 204 207 211 204 199 195 184 176
246 243 234 226 227 232 232 225 222 224 223 216 206 198 196 194 192 191 189 187 185 184 186 190 193 194 192 185 181 184 184 182 176 173 178 179 178 182 184 184 186 187 186 185 184 185 186 187 189 192 193 195 198 200 197 194 194 194 194 195 194 191 189 187 185 189 193 194 198 201 202 202 204 205 207 212 210 201 200 203 196 182 176 182 181
243 241 237 232 230 231 231 225 221 224 222 216 206 200 197 194 194 194 188 186 186 186 187 188 189 193 196 194 191 190 187 183 179 173 173 175 179 184 185 185 187 187 187 188 187 188 189 191 193 196 199 201 203 206 206 204 203 204 205 206 203 198 195 197 199 201 205 203 204 206 204 201 203 212 217 220 221 215 208 202 196 192 197 221 229
242 241 238 235 232 230 229 225 222 223 222 217 212 205 198 194 196 195 188 186 189 189 189 189 190 192 195 196 196 195 192 190 186 180 176 174 175 182 185 185 187 188 189 189 191 191 190 192 196 199 202 205 208 209 210 210 210 210 212 212 210 206 202 203 206 211 216 217 216 213 208 203 208 225 233 231 230 230 229 224 222 226 230 242 247
242 242 240 236 234 231 229 226 222 221 218 217 215 211 204 199 198 198 193 191 192 192 192 192 192 193 194 196 199 199 197 198 198 194 188 181 177 181 183 183 186 189 191 191 192 194 193 193 196 201 205 208 211 213 213 215 216 215 216 217 217 214 211 212 214 217 221 224 227 225 223 219 220 236 243 240 237 235 235 235 235 235 236 243 247
241 242 240 236 235 233 229 224 221 220 218 216 214 212 209 206 203 200 197 194 193 194 195 194 193 194 195 196 199 201 200 200 201 200 198 193 188 187 186 184 185 188 192 194 194 195 196 197 197 200 206 209 212 215 216 218 220 220 220 220 221 220 220 221 223 226 227 229 231 233 235 235 236 242 243 239 239 236 233 233 232 233 235 240 242
246 243 241 237 235 235 233 224 220 219 219 217 213 211 211 210 204 199 197 197 195 195 197 196 194 194 197 198 200 203 203 203 201 200 198 197 195 193 192 190 189 190 192 194 196 197 197 198 201 202 205 210 214 217 219 221 223 224 223 222 221 221 223 225 227 229 231 231 231 233 234 236 237 237 235 232 229 224 221 223 226 230 233 237 240
249 245 241 237 234 234 232 225 220 218 218 217 213 211 210 208 204 201 198 199 198 197 198 199 196 196 198 200 202 204 207 209 207 204 203 202 200 197 196 195 195 195 196 196 197 198 199 199 203 206 208 211 216 219 223 224 225 226 225 223 222 223 225 226 227 228 230 229 228 229 229 229 227 224 223 218 206 199 203 215 224 227 231 236 240
244 243 240 236 233 232 228 223 221 218 218 217 212 210 211 207 205 205 201 199 199 200 200 201 199 199 200 200 202 204 206 209 210 207 206 204 201 198 196 197 199 199 198 199 200 199 200 201 204 208 210 212 216 221 226 227 228 228 227 226 225 225 224 224 224 224 225 225 224 224 223 221 219 215 214 208 196 194 203 214 221 224 228 233 235
247 240 237 235 233 232 228 225 224 220 219 218 212 210 213 210 209 210 208 205 203 203 204 204 203 202 202 201 202 203 203 205 207 207 206 204 204 202 198 195 198 201 199 200 201 201 202 204 207 209 211 215 218 223 227 227 226 226 225 225 223 221 220 219 219 219 218 218 217 218 217 217 215 211 211 206 198 202 207 208 211 217 223 226 228
259 240 234 237 235 232 231 228 226 222 220 219 216 212 212 212 212 213 212 209 206 205 206 207 206 206 206 206 206 206 206 208 209 211 211 210 210 210 205 196 193 198 201 203 204 205 208 209 210 212 214 217 221 223 224 222 220 219 219 218 216 216 215 214 214 214 214 215 215 215 215 215 215 214 215 215 213 215 213 207 211 218 221 220 219
275 248 235 237 237 233 231 229 226 224 221 219 218 214 211 211 212 212 211 209 206 205 206 206 206 208 210 210 210 209 210 212 213 214 216 216 215 214 212 206 200 195 197 204 207 209 213 213 213 215 217 220 222 220 219 216 214 212 212 212 211 211 211 211 213 215 216 217 217 218 218 218 220 221 224 226 225 225 223 219 221 221 217 213 211
279 264 239 234 236 234 232 230 226 223 221 220 219 217 214 212 211 210 210 208 206 205 205 204 206 209 212 213 212 211 214 215 215 215 215 216 217 217 217 216 212 204 199 203 208 212 214 214 215 217 218 219 219 215 213 211 208 207 207 207 208 209 211 214 216 218 218 219 218 218 218 219 220 222 222 223 223 224 223 222 219 215 213 212 213
272 276 247 231 231 232 229 229 226 222 221 221 219 218 215 212 210 210 210 207 204 204 205 204 206 208 211 213 213 215 217 217 216 216 214 213 214 217 217 219 219 216 211 208 208 212 215 214 215 217 216 215 213 211 209 206 204 204 205 207 210 213 215 217 217 216 215 214 214 214 215 216 217 217 217 218 219 220 219 216 214 213 215 219 222
264 278 259 233 226 226 225 226 225 221 220 222 219 216 215 211 209 209 207 204 202 202 203 204 205 206 208 211 213 215 217 218 217 217 216 213 212 212 214 217 220 221 222 216 208 211 216 214 215 216 214 212 211 208 206 203 202 204 206 210 213 214 214 213 212 210 208 208 208 209 210 211 212 213 214 216 216 215 214 213 214 218 223 228 233
259 270 267 238 224 222 222 221 222 220 218 220 217 213 213 212 209 208 205 202 202 202 202 203 204 206 208 210 213 214 215 217 218 217 217 216 215 215 214 216 219 220 223 221 213 212 215 215 216 215 211 210 209 206 204 202 204 207 208 209 209 209 208 207 205 203 203 204 204 205 206 207 210 211 212 212 210 210 212 215 219 224 229 232 233
259 260 267 244 224 219 222 220 219 219 217 218 217 211 211 212 210 209 206 204 204 205 204 204 205 207 208 209 212 214 214 216 217 217 218 217 217 219 218 218 220 218 218 218 215 213 211 210 212 213 210 209 207 205 204 204 206 208 208 205 203 203 203 202 201 200 200 202 202 203 205 207 209 209 207 207 208 211 215 220 224 227 228 228 225
263 255 262 253 227 217 221 222 218 218 217 217 217 212 211 213 211 209 208 207 206 206 205 204 206 207 208 208 210 212 214 215 215 215 216 217 217 218 219 219 219 217 213 212 213 214 211 208 207 208 209 209 207 207 207 207 208 208 206 204 202 202 202 201 201 201 200 202 204 205 206 206 207 206 206 207 211 216 220 223 224 224 221 218 214
267 253 253 262 235 217 218 221 217 217 218 216 216 214 212 211 210 208 209 209 208 207 205 205 207 207 208 208 209 211 213 214 215 214 214 216 217 217 217 216 216 214 211 210 211 213 213 210 208 207 207 208 208 208 208 208 208 207 205 204 203 203 204 204 204 204 204 203 204 205 205 205 206 206 208 211 215 218 220 220 218 216 213 208 203
272 257 247 262 250 222 214 217 216 215 218 217 216 216 213 210 209 209 209 209 210 209 207 208 209 208 208 208 208 211 213 214 215 215 213 213 215 216 214 213 214 212 210 211 212 213 214 213 211 208 207 207 207 208 208 205 204 204 204 204 204 204 206 207 207 208 208 206 204 204 205 206 207 209 211 214 216 216 215 213 211 208 204 200 196
279 267 249 253 263 229 214 214 216 215 218 218 216 215 213 210 211 212 211 209 209 210 210 212 212 211 210 208 207 209 211 212 213 213 211 210 211 212 211 211 213 212 210 210 212 214 215 215 213 208 206 206 206 205 205 203 200 200 202 205 206 206 206 208 210 210 209 207 205 205 206 208 209 211 212 212 211 209 207 206 204 202 198 195 193
283 276 255 249 264 239 217 213 215 215 217 218 216 215 214 211 210 211 211 210 210 210 211 213 215 214 212 209 208 208 209 208 208 208 207 207 207 208 209 210 212 213 210 209 211 212 214 216 215 210 205 206 207 203 202 203 202 200 200 202 206 208 208 209 209 209 208 207 208 207 209 211 211 210 209 207 205 204 202 201 199 197 195 193 192
287 281 263 248 256 247 221 213 214 215 216 217 216 216 215 210 207 207 208 210 212 212 212 214 216 215 212 210 210 210 209 206 205 204 205 206 206 205 207 208 210 210 209 207 208 210 211 212 213 212 210 208 206 203 201 202 203 204 203 202 203 205 208 210 209 208 205 205 207 209 211 211 209 207 205 203 203 201 199 197 196 196 195 194 193
291 286 273 251 250 251 225 212 212 216 216 216 216 215 214 212 208 207 207 208 211 213 214 214 215 213 211 211 213 212 210 207 205 204 204 205 206 205 205 207 207 207 205 204 205 207 209 209 209 211 212 209 205 204 201 199 201 205 207 207 206 204 205 207 209 209 207 206 206 208 209 207 203 202 201 201 201 199 197 197 197 197 197 195 195
295 289 282 259 248 251 229 212 211 214 215 216 216 214 214 213 211 209 208 209 211 213 214 214 214 214 214 215 217 216 212 207 206 207 207 208 208 205 205 205 204 204 202 202 204 205 206 208 209 209 209 207 205 204 202 203 206 207 206 207 209 209 206 206 206 207 208 207 207 208 207 203 200 199 198 198 199 199 199 200 200 200 198 197 197
297 292 291 270 248 247 232 213 210 212 213 215 216 216 216 215 213 210 209 210 212 213 213 213 213 215 216 218 220 219 216 211 209 208 210 211 210 208 207 205 203 202 200 200 203 205 206 207 208 208 207 207 208 209 210 211 211 209 206 205 206 208 208 207 207 207 208 208 209 207 204 201 200 198 198 198 199 200 201 202 202 201 200 199 199
298 296 298 281 252 244 230 213 209 211 212 214 215 215 216 217 216 213 211 212 214 214 213 212 214 215 215 217 220 220 218 216 214 212 211 211 211 210 209 207 206 204 203 201 201 203 206 207 208 210 210 210 212 213 214 214 212 210 209 206 205 205 205 206 207 207 207 208 208 206 203 200 200 199 200 200 201 202 203 204 203 202 201 201 201
299 298 299 287 257 242 226 211 208 210 212 213 215 214 214 216 217 217 216 216 218 218 215 214 214 215 214 214 217 219 219 218 217 215 212 211 212 211 210 210 209 208 208 207 205 204 205 207 208 210 211 213 214 214 214 213 213 212 211 209 208 208 207 208 209 208 208 207 204 203 203 201 200 201 202 203 203 204 205 205 204 203 202 202 202
297 296 298 289 259 240 225 209 204 208 210 212 215 214 213 213 214 217 219 219 220 220 219 217 216 215 215 214 215 217 218 216 216 215 214 212 212 212 212 212 212 212 213 213 212 211 210 209 209 210 211 213 215 216 215 214 214 213 210 209 211 212 210 210 212 213 212 208 203 202 203 202 202 203 204 205 205 205 206 206 205 204 204 203 204
293 292 296 288 256 236 223 209 204 208 211 213 214 214 214 213 213 215 219 221 222 222 223 222 218 218 219 218 218 219 218 215 214 215 214 213 212 212 212 214 214 215 215 216 217 218 218 217 216 216 216 215 216 218 218 216 214 214 212 210 211 213 212 212 213 216 215 211 206 205 204 204 204 204 205 206 206 205 206 206 205 205 204 204 207
288 288 295 284 251 233 220 207 205 209 210 212 213 214 215 217 216 216 217 220 223 224 226 225 221 220 221 220 218 218 217 215 213 214 215 215 215 213 212 214 216 217 218 219 220 221 223 224 225 226 224 221 220 221 221 219 217 216 216 215 213 212 211 211 212 215 214 211 209 209 208 207 206 205 206 208 207 205 204 206 207 207 206 206 210
283 286 291 274 244 234 219 205 203 209 210 210 213 213 213 215 216 217 217 219 223 224 226 226 224 221 221 219 216 215 216 216 214 213 215 216 215 215 214 215 217 218 220 222 223 224 225 227 229 232 231 228 225 225 223 221 218 217 217 216 213 211 211 210 212 214 213 211 210 211 211 210 207 206 207 208 207 206 205 206 208 208 208 210 213
279 284 285 261 235 234 223 206 202 207 210 212 213 213 212 212 214 217 219 220 222 223 223 225 225 223 221 219 217 215 216 218 217 214 214 214 215 215 216 216 217 218 221 222 223 224 226 228 231 233 234 233 232 232 230 225 220 218 216 214 213 213 213 211 212 214 213 211 209 209 211 212 209 207 207 207 207 207 206 207 209 209 209 212 215
277 284 280 251 230 232 225 212 206 208 211 213 213 211 211 212 214 218 220 220 221 222 223 224 225 225 223 222 221 219 217 218 217 215 214 214 215 215 215 216 217 217 219 220 220 220 222 225 228 230 232 233 235 236 234 228 224 222 219 218 217 217 215 214 213 213 211 210 209 208 210 213 210 207 206 206 206 208 208 209 210 209 210 212 215
275 282 273 241 227 228 224 216 211 211 212 213 212 210 209 211 214 218 220 221 220 220 222 223 224 225 224 225 225 223 221 219 217 216 215 215 216 216 215 216 217 217 217 218 219 219 219 221 223 226 228 230 233 234 232 228 226 225 225 225 224 222 219 218 217 213 209 209 210 210 211 213 210 207 206 204 204 207 209 210 210 210 211 214 216